Powrót do katalogu

IRIDE-MS1-EAG2-7

AktywnyNaukaSSO
NORAD 66701·PAYLOAD·🇮🇹 Italy

Wystrzelony Nov 28, 2025 z Vandenberg Space Force Base

Loading…

Następne Przeloty (najbliższe 24 godziny)

TLE

ŚwieżeSource: Space-Track

Epoka: Sep 14, 2026, 11:31 UTC

1 66701U 25276AM  26257.48021476  .00004982  00000-0  22744-3 0  9991
2 66701  97.4143 329.7151 0005918  63.6295 296.5548 15.21040440 43997

Śledź IRIDE-MS1-EAG2-7 w czasie rzeczywistym z AllMySat

Download on the App Store